Voltar ao catálogo

SKYSAT C8

AtivoCiênciaSSO
NORAD 42990·PAYLOAD·🇺🇸 United States

Lançado Oct 31, 2017 de Vandenberg Space Force Base

Loading…

Próximas Passagens (próximas 24 horas)

TLE

AtualizadoSource: CelesTrak SupGP

Época: Sep 14, 2026, 16:50 UTC

1 42990C 17068D   26257.70155093  .00012956  00000+0  34159-3 0  2572
2 42990  97.4652  35.7327 0001524  92.1746  74.4227 15.38535072    13

Acompanhe SKYSAT C8 em tempo real com AllMySat

Download on the App Store